FW6582 Weather Reports


time (UTC)temp
F
wind
direction
speed
knots
gust
knots
rain 1hr
in
rain 24hr
in
rain mn
in
humidity
%
barometer
mb
20260505052516 44 0.0 1.7 0.00 0.12 0.12 92 1015.0
20260505051537 44 68 0.9 1.7 0.00 0.12 0.12 92 1014.9
20260505050516 45 0.0 0.0 0.02 0.12 0.12 92 1015.3
20260505041536 45 68 0.9 3.5 0.10 0.12 0.12 90 1015.0
20260505040516 45 0.0 1.7 0.10 0.10 0.10 89 1015.0
20260505035516 46 338 0.9 3.5 0.09 0.09 0.09 88 1014.9
20260505034516 46 315 2.6 5.2 0.08 0.08 0.08 88 1014.8
20260505033556 47 338 3.5 7.0 0.06 0.06 0.06 87 1014.5
20260505032536 47 0 3.5 7.0 0.05 0.05 0.05 85 1014.6
20260505031516 48 0 4.3 9.6 0.02 0.02 0.03 82 1014.7
20260505030556 50 338 6.1 12.2 0.00 0.00 0.00 76 1014.6
20260505025516 50 0 3.5 7.8 0.00 0.00 0.00 72 1014.3
20260505024516 50 0.0 0.0 0.00 0.00 0.00 72 1013.8
20260505023516 50 0.0 0.0 0.00 0.00 0.00 71 1013.1
20260505022516 50 0.0 0.0 0.00 0.00 0.00 73 1013.0
20260505021516 50 0 0.9 1.7 0.00 0.00 0.00 74 1013.0
20260505020516 50 0.0 0.9 0.00 0.00 0.00 73 1012.1
20260505015516 51 0.0 0.0 0.00 0.00 0.00 72 1012.2
20260505014516 51 0.0 0.0 0.00 0.00 0.00 70 1012.5
20260505013516 52 0 0.9 2.6 0.00 0.00 0.00 71 1012.1
20260505012516 52 0 0.9 2.6 0.00 0.00 0.00 71 1012.1
20260505011516 52 0 1.7 4.3 0.00 0.00 0.00 70 1012.1
20260505010516 53 338 2.6 5.2 0.00 0.00 0.00 68 1011.3
20260505005536 53 45 3.5 7.0 0.00 0.00 0.00 67 1011.1
20260505004517 53 293 0.9 4.3 0.00 0.00 0.00 67 1011.1
20260505003516 53 23 2.6 6.1 0.00 0.00 0.00 64 1010.0
20260505002516 53 315 4.3 9.6 0.00 0.00 0.00 63 1010.0
20260505001516 55 315 5.2 12.2 0.00 0.00 0.00 57 1010.5
20260505000516 56 315 5.2 9.6 0.00 0.00 0.00 51 1010.1
20260504235516 56 0 3.5 8.7 0.00 0.00 0.00 50 1009.7
20260504234536 56 338 6.1 12.2 0.00 0.00 0.00 49 1009.2
20260504233516 57 0 7.8 14.8 0.00 0.00 0.00 48 1008.6
20260504232516 57 338 6.1 14.8 0.00 0.00 0.00 50 1008.7
20260504231516 58 338 8.7 13.0 0.00 0.00 0.00 46 1008.5
20260504230516 58 338 9.6 16.5 0.00 0.00 0.00 44 1008.5
20260504225516 58 338 9.6 16.5 0.00 0.00 0.00 43 1008.3
20260504224516 58 338 12.2 21.7 0.00 0.00 0.00 43 1008.5
20260504223516 59 338 12.2 22.6 0.00 0.00 0.00 41 1008.9
20260504222516 61 0 8.7 13.9 0.00 0.00 0.00 39 1009.3
20260504221516 61 338 10.4 21.7 0.00 0.00 0.00 37 1009.4
20260504220516 65 0 7.8 17.4 0.00 0.00 0.00 32 1010.1
20260504215516 65 68 4.3 7.8 0.00 0.00 0.00 30 1009.6
20260504214536 64 90 3.5 7.8 0.00 0.00 0.00 31 1009.2
20260504213516 64 90 2.6 7.0 0.00 0.00 0.00 31 1010.2
20260504212516 65 68 3.5 7.8 0.00 0.00 0.00 31 1010.2
20260504211517 65 90 5.2 13.0 0.00 0.00 0.00 32 1010.4
20260504210516 67 45 4.3 11.3 0.00 0.00 0.00 31 1011.0
20260504205516 66 338 7.8 13.0 0.00 0.00 0.00 31 1010.9
20260504204516 66 0 9.6 17.4 0.00 0.00 0.00 32 1011.0
20260504203556 66 0 7.8 13.0 0.00 0.00 0.00 32 1011.3
20260504202516 66 338 6.1 12.2 0.00 0.00 0.00 34 1011.6
20260504201516 66 0 7.0 15.6 0.00 0.00 0.00 32 1011.6
20260504200516 65 338 7.0 11.3 0.00 0.00 0.00 33 1012.1
20260504195516 65 45 6.1 14.8 0.00 0.00 0.00 32 1012.1
20260504194516 65 68 5.2 11.3 0.00 0.00 0.00 32 1012.0
20260504193516 66 45 7.8 13.9 0.00 0.00 0.00 32 1013.2
20260504192516 65 0 7.8 18.2 0.00 0.00 0.00 32 1013.1
20260504191516 63 0 8.7 16.5 0.00 0.00 0.00 35 1012.6
20260504190515 61 338 9.6 16.5 0.00 0.00 0.00 37 1012.4
20260504185535 61 23 6.1 16.5 0.00 0.00 0.00 36 1012.2
20260504184516 61 90 7.0 18.2 0.00 0.00 0.00 36 1012.4
20260504183516 62 315 6.1 16.5 0.00 0.00 0.00 34 1013.3
20260504182516 62 225 7.8 20.0 0.00 0.00 0.00 30 1012.6
20260504181516 64 135 5.2 13.9 0.00 0.00 0.00 29 1012.9
20260504180536 64 90 2.6 7.0 0.00 0.00 0.00 26 1012.6
20260504175536 65 90 4.3 8.7 0.00 0.00 0.00 29 1012.6
20260504174515 66 68 4.3 7.0 0.00 0.00 0.00 27 1013.0
20260504173536 68 45 2.6 4.3 0.00 0.00 0.00 25 1013.1
20260504172516 68 45 3.5 7.8 0.00 0.00 0.00 24 1013.6
20260504171516 69 45 2.6 5.2 0.00 0.00 0.00 23 1013.7
20260504170537 69 338 5.2 8.7 0.00 0.00 0.00 24 1013.8
20260504150518 64 203 2.6 4.3 0.00 0.00 0.00 27 1014.1
20260504140558 59 225 1.7 4.3 0.00 0.00 0.00 29 1014.3
20260504130517 56 203 2.6 7.0 0.00 0.00 0.00 29 1013.9
20260504110517 43 0.0 1.7 0.00 0.00 0.00 48 1012.0
20260504100558 45 0.0 2.6 0.00 0.00 0.00 46 1013.2
20260504081538 49 0.0 1.7 0.00 0.00 0.00 38 1014.3
20260504080517 51 45 0.9 2.6 0.00 0.00 0.00 37 1014.4